Miles City, MT

6:43 AM MST on January 22, 2017 (GMT -0700)
Wiley

Weather History for KMLS - March, 2013

Change the Weather History Date:

Monday, March 18, 2013

  Actual Average Record
Temperature  
Mean Temperature 22 °F 36 °F  
Max Temperature 37 °F 47 °F 70 °F (1972)
Min Temperature 6 °F 24 °F -12 °F (1965)
Degree Days  
Heating Degree Days 43 30  
Month to date heating degree days 566 593  
Since 1 July heating degree days 5760 6327  
Cooling Degree Days 0 0  
Month to date cooling degree days 0 0  
Year to date cooling degree days 0 0  
Moisture  
Dew Point 11 °F    
Average Humidity 62    
Maximum Humidity 76    
Minimum Humidity 47    
Precipitation  
Precipitation 0.00 in 0.02 in 0.44 in (2003)
Month to date precipitation 0.22 0.28  
Year to date precipitation 0.41 0.83  
Sea Level Pressure  
Sea Level Pressure 30.03 in    
Wind  
Wind Speed 8 mph (WSW)    
Max Wind Speed 26 mph    
Max Gust Speed 32 mph    
Visibility 10 miles    
Events      
T = Trace of Precipitation, MM = Missing Value Source: NWS Daily Summary

Daily Weather History Graph

Daily Weather History Graph

Search for Another Location

Airport or City:

Trip Planner

Search our weather history database for the weather conditions in past years. The results will help you decide how hot, cold, wet, or windy it might be!

Date:

Astronomy

Mar. 18, 2013 Rise Set
Actual Time 7:09 AM MDT 7:13 PM MDT
Civil Twilight 6:39 AM MDT 7:43 PM MDT
Nautical Twilight 6:04 AM MDT 8:19 PM MDT
Astronomical Twilight 5:28 AM MDT 8:55 PM MDT
Moon 10:51 AM MDT (3/18) 1:35 AM MDT (3/18)
Length of Visible Light 13h 04m
Length of Day
12h 04m
Waxing Crescent, 41% of the Moon is Illuminated
Mar 18
Waxing Crescent
Mar 19
First Quarter
Mar 27
Full
Apr 2
Last Quarter
Apr 10
New

Hourly Weather History & Observations

Time (MDT) Temp. Windchill Dew Point Humidity Pressure Visibility Wind Dir Wind Speed Gust Speed Precip Events Conditions
12:33 AM 12.2 °F -6.3 °F 5.0 °F 73% 29.93 in 10.0 mi NW 20.7 mph - 0.00 in   Overcast
12:53 AM 12.9 °F -4.4 °F 5.0 °F 71% 30.04 in 10.0 mi NW 18.4 mph 25.3 mph 0.00 in   Overcast
1:53 AM 12.0 °F -5.6 °F 3.0 °F 67% 30.06 in 10.0 mi NNW 18.4 mph 27.6 mph N/A   Partly Cloudy
2:53 AM 10.0 °F -9.1 °F 1.0 °F 67% 30.08 in 10.0 mi NNW 20.7 mph 29.9 mph N/A   Clear
3:53 AM 10.0 °F -8.6 °F -0.0 °F 64% 30.09 in 10.0 mi NNW 19.6 mph - N/A   Clear
4:53 AM 8.1 °F -6.2 °F 1.0 °F 73% 30.11 in 10.0 mi NW 10.4 mph - N/A   Clear
5:53 AM 8.1 °F -5.3 °F -0.0 °F 70% 30.11 in 10.0 mi NNW 9.2 mph - N/A   Clear
6:53 AM 7.0 °F 0.1 °F -0.0 °F 73% 30.12 in 10.0 mi NNW 3.5 mph - N/A   Clear
7:53 AM 8.1 °F -0.5 °F 1.9 °F 76% 30.14 in 10.0 mi WSW 4.6 mph - N/A   Clear
8:53 AM 12.0 °F 5.9 °F 1.9 °F 64% 30.12 in 10.0 mi SW 3.5 mph - N/A   Clear
9:53 AM 15.1 °F 7.7 °F 3.9 °F 61% 30.11 in 10.0 mi Variable 4.6 mph - N/A   Clear
10:53 AM 18.0 °F 11.1 °F 6.1 °F 60% 30.09 in 10.0 mi SW 4.6 mph - N/A   Clear
11:53 AM 21.9 °F 13.4 °F 10.0 °F 60% 30.06 in 10.0 mi SSE 6.9 mph - N/A   Clear
12:53 PM 26.1 °F 17.6 °F 12.9 °F 58% 30.02 in 10.0 mi SSW 8.1 mph - N/A   Clear
1:53 PM 30.0 °F 23.2 °F 15.1 °F 54% 29.98 in 10.0 mi South 6.9 mph - N/A   Clear
2:53 PM 30.9 °F 24.3 °F 17.1 °F 57% 29.96 in 10.0 mi SSW 6.9 mph - N/A   Mostly Cloudy
3:53 PM 33.1 °F 26.1 °F 16.0 °F 50% 29.94 in 10.0 mi South 8.1 mph - N/A   Mostly Cloudy
4:53 PM 35.1 °F 30.1 °F 17.1 °F 48% 29.94 in 10.0 mi South 5.8 mph - N/A   Scattered Clouds
5:53 PM 36.0 °F 30.3 °F 18.0 °F 48% 29.93 in 10.0 mi SSE 6.9 mph - N/A   Partly Cloudy
6:53 PM 33.1 °F 28.7 °F 19.0 °F 56% 29.96 in 10.0 mi SSW 4.6 mph - N/A   Clear
7:53 PM 30.9 °F 23.5 °F 21.9 °F 69% 29.97 in 10.0 mi WSW 8.1 mph - N/A   Clear
8:53 PM 32.0 °F 28.7 °F 21.9 °F 66% 29.98 in 10.0 mi West 3.5 mph - N/A   Overcast
9:53 PM 30.0 °F - 23.0 °F 75% 29.99 in 10.0 mi Calm Calm - N/A   Clear
10:53 PM 30.9 °F 22.8 °F 21.9 °F 69% 29.99 in 10.0 mi West 9.2 mph - N/A   Clear
11:53 PM 27.0 °F 23.0 °F 19.9 °F 75% 30.00 in 10.0 mi NW 3.5 mph - N/A   Clear